User: anonymous   Login
Location: Lamoine Observatory
(44.4551°N, 68.3470°W)
Time: 02:38:11
(UTC-04:00)
Language:

Cosmos 1674 Rocket - Orbit

View from above orbital plane
View from above orbital plane
View from above satellite
View from above satellite

Ground track
Ground track

The orbit data is extracted from the following two-line orbital elements,

1 15945U 85069B   16273.80033603  .00000157  00000-0  15894-4 0  9998
2 15945  82.5308  16.8618 0021154  63.6565 296.6819 14.83882955682411
Epoch (UTC): 29 September 2016 19:12:29
Eccentricity: 0.0021154
inclination: 82.5308°
perigee height: 602 km
apogee height: 632 km
right ascension of ascending node: 16.8618°
argument of perigee: 63.6565°
revolutions per day: 14.83882955
mean anomaly at epoch: 296.6819°
orbit number at epoch: 68241

The dashed part of the orbit path shows where the satellite is in the earth's shadow,  

DLR